Regional Weather Roundup
Issued by NWS

Home | Current Version | Previous Version | Text Only | Print | Product List | Glossary On
Versions: 1 2 3 4 5 6 7 8 9 10 11 12 13 14 15 16 17 18 19 20 21 22 23 24 25 26 27 28 29 30 31 32 33 34 35 36 37 38 39 40 41 42 43 44 45 46 47 48 49 50
000
ASUS43 KTOP 260159
RWRKS

WEATHER ROUNDUP FOR KANSAS
NATIONAL WEATHER SERVICE GOODLAND KS
900 PM CDT SAT OCT 25 2014

NOTE:  "FAIR" INDICATES FEW OR NO CLOUDS BELOW 12,000 FEET WITH NO
SIGNIFICANT WEATHER AND/OR OBSTRUCTIONS TO VISIBILITY.

KSZ001>006-013>018-027>032-041>047-260300-
NORTHWEST KANSAS

CITY           SKY/WX    TMP DP  RH WIND       PRES   REMARKS
GOODLAND       CLEAR     66  39  37 SW8       29.98F
HAYS           CLEAR     66  48  52 S7        29.93S
HILL CITY      CLEAR     65  47  52 VRB5      29.93F
RUSSELL        CLEAR     71  54  54 S13       29.92F
$$

KSZ061>065-074>080-084>089-260300-
SOUTHWEST KANSAS

CITY           SKY/WX    TMP DP  RH WIND       PRES   REMARKS
DODGE CITY     CLEAR     72  47  40 S13       29.96F
ELKHART          N/A     66  40  38 S9          N/A
GARDEN CITY    CLEAR     66  47  50 SE9       29.95F
GREAT BEND     CLEAR     70  55  60 S12       29.94F
LIBERAL        CLEAR     68  43  40 S10       29.99F
$$

KSZ066>073-081>083-090>101-260300-
SOUTHEAST KANSAS

CITY           SKY/WX    TMP DP  RH WIND       PRES   REMARKS
CHANUTE        CLEAR     68  63  84 SE8       30.00S
COFFEYVILLE    CLEAR     68  64  87 SE5       29.99S
HUTCHINSON     CLEAR     71  58  63 SE7       29.95F
NEWTON         CLEAR     73  55  53 S12       29.99F
PARSONS        CLEAR     69  64  84 CALM      30.01S
WICHITA INTL   CLEAR     72  60  66 S10       29.96F
WICHITA JABRA  CLEAR     69  59  70 S8        29.97F
WICHITA MCCONL CLEAR     72  61  67 SE8       29.97F
WINFIELD       CLEAR     72  61  68 SE6       29.99S
$$

KSZ007>012-019>026-033>040-048>060-102>105-260300-
NORTHEAST KANSAS

CITY           SKY/WX    TMP DP  RH WIND       PRES   REMARKS
CONCORDIA      CLEAR     64  58  80 E6        29.96F
EMPORIA        CLEAR     64  60  87 SE9       29.97F
LAWRENCE       CLEAR     69  56  62 E9        29.99F
MANHATTAN      CLEAR     68  58  70 NE8       29.95F
OLATHE IND     CLEAR     68  57  68 E6        30.01F
OLATHE EXE     CLEAR     69  59  70 E6        30.00F
SALINA         CLEAR     68  57  68 S7        29.94F
TOPEKA BILLARD CLEAR     66  59  78 E5        29.98F
TOPEKA FORBES  CLEAR     67  57  70 E7        29.98F
$$



USA.gov is the U.S. government's official web portal to all federal, state and local government web resources and services.